Hagerstown, MD

6:45 AM EDT on May 30, 2017 (GMT -0400)
Hagerstown Regional-Henson

Weather History for KHGR - January, 2013

Change the Weather History Date:

Saturday, January 5, 2013

  Actual Average Record
Temperature  
Mean Temperature 34 °F 31 °F  
Max Temperature 39 °F 38 °F 64 °F (1997)
Min Temperature 30 °F 23 °F 10 °F (1999)
Degree Days  
Heating Degree Days 30 34  
Month to date heating degree days 170  
Since 1 July heating degree days 2134  
Cooling Degree Days 0 0  
Month to date cooling degree days 0  
Year to date cooling degree days 0  
Moisture  
Dew Point 21 °F    
Average Humidity 60    
Maximum Humidity 75    
Minimum Humidity 47    
Precipitation  
Precipitation 0.00 in 0.10 in 0.50 in (2005)
Month to date precipitation 0.46  
Year to date precipitation 0.46  
Sea Level Pressure  
Sea Level Pressure 30.30 in    
Wind  
Wind Speed 9 mph (WNW)    
Max Wind Speed 18 mph    
Max Gust Speed 26 mph    
Visibility 10 miles    
Events      
T = Trace of Precipitation, MM = Missing Value Source: NWS Daily Summary

Daily Weather History Graph

Daily Weather History Graph

Search for Another Location

Airport or City:

Trip Planner

Search our weather history database for the weather conditions in past years. The results will help you decide how hot, cold, wet, or windy it might be!

Date:

Astronomy

Jan. 05, 2013 Rise Set
Actual Time 7:32 AM EST 5:01 PM EST
Civil Twilight 7:02 AM EST 5:31 PM EST
Nautical Twilight 6:28 AM EST 6:04 PM EST
Astronomical Twilight 5:55 AM EST 6:37 PM EST
Moon 12:37 AM EST (1/5) 11:49 AM EST (1/5)
Length of Visible Light 10h 29m
Length of Day
9h 28m
Last Quarter, 44% of the Moon is Illuminated
Jan 5
Last Quarter
Jan 11
New
Jan 18
First Quarter
Jan 26
Full
Feb 3
Last Quarter

Hourly Weather History & Observations

Time (EST) Temp. Windchill Dew Point Humidity Pressure Visibility Wind Dir Wind Speed Gust Speed Precip Events Conditions
12:53 AM 33.1 °F 23.4 °F 19.0 °F 56% 30.18 in 10.0 mi West 13.8 mph - N/A   Clear
1:53 AM 33.1 °F 22.6 °F 19.0 °F 56% 30.20 in 10.0 mi West 16.1 mph - N/A   Clear
2:53 AM 32.0 °F 21.2 °F 19.0 °F 59% 30.23 in 10.0 mi WNW 16.1 mph 26.5 mph N/A   Clear
3:53 AM 30.0 °F 21.7 °F 19.0 °F 64% 30.27 in 10.0 mi West 9.2 mph - N/A   Clear
4:53 AM 30.0 °F 17.9 °F 19.0 °F 64% 30.29 in 10.0 mi WNW 18.4 mph - N/A   Clear
6:53 AM 30.0 °F 20.0 °F 19.9 °F 66% 30.34 in 10.0 mi WNW 12.7 mph - N/A   Clear
7:53 AM 30.0 °F 22.4 °F 19.9 °F 66% 30.37 in 10.0 mi WNW 8.1 mph - N/A   Clear
8:53 AM 32.0 °F 26.4 °F 19.9 °F 61% 30.38 in 10.0 mi NNW 5.8 mph - N/A   Clear
9:53 AM 34.0 °F 28.8 °F 21.0 °F 59% 30.38 in 10.0 mi NW 5.8 mph - N/A   Clear
10:53 AM 34.0 °F 31.0 °F 21.0 °F 59% 30.40 in 10.0 mi West 3.5 mph - N/A   Clear
11:53 AM 36.0 °F 31.1 °F 21.0 °F 55% 30.38 in 10.0 mi WNW 5.8 mph - N/A   Clear
12:53 PM 36.0 °F - 21.0 °F 55% 30.35 in 10.0 mi Calm Calm - N/A   Clear
1:53 PM 37.9 °F 35.5 °F 21.0 °F 51% 30.32 in 10.0 mi WNW 3.5 mph - N/A   Clear
2:53 PM 39.9 °F - 21.0 °F 47% 30.32 in 10.0 mi Calm Calm - N/A   Clear
3:53 PM 39.0 °F 35.7 °F 21.0 °F 49% 30.31 in 10.0 mi SSE 4.6 mph - N/A   Clear
4:53 PM 36.0 °F 32.1 °F 21.9 °F 57% 30.31 in 10.0 mi ENE 4.6 mph - N/A   Clear
5:53 PM 35.1 °F 30.1 °F 21.9 °F 59% 30.29 in 10.0 mi ESE 5.8 mph - N/A   Clear
6:53 PM 33.1 °F 27.7 °F 21.9 °F 64% 30.28 in 10.0 mi East 5.8 mph - N/A   Clear
7:53 PM 32.0 °F - 21.9 °F 66% 30.28 in 10.0 mi Calm Calm - N/A   Clear
8:53 PM 33.1 °F - 23.0 °F 66% 30.25 in 10.0 mi Calm Calm - N/A   Partly Cloudy
9:53 PM 32.0 °F 28.7 °F 24.1 °F 73% 30.25 in 9.0 mi NW 3.5 mph - N/A   Overcast
10:53 PM 35.1 °F - 23.0 °F 61% 30.23 in 10.0 mi Calm Calm - N/A   Overcast
11:53 PM 33.1 °F - 26.1 °F 75% 30.20 in 8.0 mi Calm Calm - N/A   Overcast